Simultaneous Nadir Overpasses (SNOs) Predictions

Prediction of SNOs between NPP and TERRA Satellite Orbit:

Table of predicted SNOs for the next 14.0 days since TLE Epoch: 8/11/2016
Index Date (NPP) Time (NPP) Lat,Lon (NPP) SZA (NPP ) Date (TERRA) Time (TERRA) Lat,Lon (TERRA) SZA (TERRA ) Distance(km) Time Diff (sec)
1 08/14/2016 10:39:52 -68.47,-161.28 125.77 08/14/2016 10:41:02 -68.46,-161.32 125.79 1.77 70
2 08/14/2016 11:30:36 68.36, 6.17 54.13 08/14/2016 11:30:29 68.34, 6.18 54.11 1.84 7
3 08/14/2016 12:21:14 -68.05, 173.89 126.18 08/14/2016 12:20:01 -68.13, 173.56 126.09 16.12 73
4 08/17/2016 02:56:45 -68.44, -45.46 124.97 08/17/2016 02:57:30 -68.42, -45.48 124.99 2.00 45
5 08/17/2016 03:47:29 68.33, 121.99 54.94 08/17/2016 03:46:57 68.30, 122.02 54.91 3.18 32
6 08/19/2016 18:23:08 69.20, -98.03 56.68 08/19/2016 18:24:16 69.08, -96.40 56.53 65.84 68
7 08/19/2016 19:13:37 -68.41, 70.36 124.13 08/19/2016 19:13:56 -68.43, 70.41 124.11 3.23 19
8 08/19/2016 20:04:20 68.24,-122.12 55.72 08/19/2016 20:03:24 68.25,-122.16 55.73 1.49 56
9 08/22/2016 10:39:48 68.48, 18.72 56.83 08/22/2016 10:40:54 68.47, 18.72 56.81 1.14 66
10 08/22/2016 11:30:30 -68.38,-173.83 123.27 08/22/2016 11:30:24 -68.37,-173.77 123.28 2.53 6
11 08/22/2016 12:21:08 67.95, -5.97 56.31 08/22/2016 12:19:56 67.97, -6.60 56.34 26.31 72
12 08/25/2016 02:56:41 68.46, 134.53 57.72 08/25/2016 02:57:21 68.46, 134.59 57.72 2.66 40
13 08/25/2016 03:47:22 -68.30, -57.95
